Year,Month,Day,Hour,Minute,Value (Times are PST for temperature in C)
2012,09,19,00,00,14.20
2012,09,19,00,01,14.20
2012,09,19,00,02,14.20
2012,09,19,00,03,14.10
2012,09,19,00,04,14.10
2012,09,19,00,05,14.10
2012,09,19,00,06,14.10
2012,09,19,00,07,14.10
2012,09,19,00,08,14.00
2012,09,19,00,09,14.00
2012,09,19,00,10,14.00
2012,09,19,00,11,13.90
2012,09,19,00,12,13.90
2012,09,19,00,13,13.90
2012,09,19,00,14,13.90
2012,09,19,00,15,13.80
2012,09,19,00,16,13.80
2012,09,19,00,17,13.80
2012,09,19,00,18,13.80
2012,09,19,00,19,13.80
2012,09,19,00,20,13.70
2012,09,19,00,21,13.70
2012,09,19,00,22,13.70
2012,09,19,00,23,13.70
2012,09,19,00,24,13.70
2012,09,19,00,25,13.70
2012,09,19,00,26,13.70
2012,09,19,00,27,13.70
2012,09,19,00,28,13.60
2012,09,19,00,29,13.60
2012,09,19,00,30,13.60
2012,09,19,00,31,13.60
2012,09,19,00,32,13.60
2012,09,19,00,33,13.60
2012,09,19,00,34,13.60
2012,09,19,00,35,13.60
2012,09,19,00,36,13.50
2012,09,19,00,37,13.50
2012,09,19,00,38,13.50
2012,09,19,00,39,13.50
2012,09,19,00,40,13.40
2012,09,19,00,41,13.40
2012,09,19,00,42,13.40
2012,09,19,00,43,13.40
2012,09,19,00,44,13.40
2012,09,19,00,45,13.40
2012,09,19,00,46,13.40
2012,09,19,00,47,13.40
2012,09,19,00,48,13.40
2012,09,19,00,49,13.40
2012,09,19,00,50,13.40
2012,09,19,00,51,13.30
2012,09,19,00,52,13.30
2012,09,19,00,53,13.30
2012,09,19,00,54,13.30
2012,09,19,00,55,13.30
2012,09,19,00,56,13.30
2012,09,19,00,57,13.20
2012,09,19,00,58,13.20
2012,09,19,00,59,13.20
2012,09,19,01,00,13.10
2012,09,19,01,01,13.10
2012,09,19,01,02,13.10
2012,09,19,01,03,13.10
2012,09,19,01,04,13.10
2012,09,19,01,05,13.00
2012,09,19,01,06,13.00
2012,09,19,01,07,13.00
2012,09,19,01,08,13.00
2012,09,19,01,09,13.00
2012,09,19,01,10,13.00
2012,09,19,01,11,13.00
2012,09,19,01,12,13.00
2012,09,19,01,13,13.00
2012,09,19,01,14,13.00
2012,09,19,01,15,13.00
2012,09,19,01,16,13.00
2012,09,19,01,17,13.00
2012,09,19,01,18,13.00
2012,09,19,01,19,13.00
2012,09,19,01,20,13.00
2012,09,19,01,21,13.00
2012,09,19,01,22,13.00
2012,09,19,01,23,13.00
2012,09,19,01,24,13.00
2012,09,19,01,25,13.10
2012,09,19,01,26,13.10
2012,09,19,01,27,13.10
2012,09,19,01,28,13.10
2012,09,19,01,29,13.10
2012,09,19,01,30,13.10
2012,09,19,01,31,13.10
2012,09,19,01,32,13.10
2012,09,19,01,33,13.10
2012,09,19,01,34,13.10
2012,09,19,01,35,13.10
2012,09,19,01,36,13.10
2012,09,19,01,37,13.10
2012,09,19,01,38,13.10
2012,09,19,01,39,13.10
2012,09,19,01,40,13.10
2012,09,19,01,41,13.10
2012,09,19,01,42,13.10
2012,09,19,01,43,13.10
2012,09,19,01,44,13.10
2012,09,19,01,45,13.10
2012,09,19,01,46,13.10
2012,09,19,01,47,13.10
2012,09,19,01,48,13.10
2012,09,19,01,49,13.00
2012,09,19,01,50,13.00
2012,09,19,01,51,13.00
2012,09,19,01,52,13.00
2012,09,19,01,53,13.00
2012,09,19,01,54,13.00
2012,09,19,01,55,13.00
2012,09,19,01,56,13.00
2012,09,19,01,57,13.00
2012,09,19,01,58,12.90
2012,09,19,01,59,12.90
2012,09,19,02,00,12.90
2012,09,19,02,01,12.80
2012,09,19,02,02,12.80
2012,09,19,02,03,12.80
2012,09,19,02,04,12.80
2012,09,19,02,05,12.70
2012,09,19,02,06,12.70
2012,09,19,02,07,12.70
2012,09,19,02,08,12.60
2012,09,19,02,09,12.60
2012,09,19,02,10,12.60
2012,09,19,02,11,12.50
2012,09,19,02,12,12.50
2012,09,19,02,13,12.50
2012,09,19,02,14,12.40
2012,09,19,02,15,12.40
2012,09,19,02,16,12.30
2012,09,19,02,17,12.30
2012,09,19,02,18,12.30
2012,09,19,02,19,12.20
2012,09,19,02,20,12.20
2012,09,19,02,21,12.20
2012,09,19,02,22,12.10
2012,09,19,02,23,12.10
2012,09,19,02,24,12.10
2012,09,19,02,25,12.10
2012,09,19,02,26,12.00
2012,09,19,02,27,12.00
2012,09,19,02,28,12.00
2012,09,19,02,29,12.00
2012,09,19,02,30,12.00
2012,09,19,02,31,12.00
2012,09,19,02,32,11.90
2012,09,19,02,33,11.90
2012,09,19,02,34,11.90
2012,09,19,02,35,11.90
2012,09,19,02,36,11.90
2012,09,19,02,37,11.80
2012,09,19,02,38,11.80
2012,09,19,02,39,11.80
2012,09,19,02,40,11.80
2012,09,19,02,41,11.80
2012,09,19,02,42,11.80
2012,09,19,02,43,11.70
2012,09,19,02,44,11.70
2012,09,19,02,45,11.70
2012,09,19,02,46,11.70
2012,09,19,02,47,11.70
2012,09,19,02,48,11.60
2012,09,19,02,49,11.60
2012,09,19,02,50,11.60
2012,09,19,02,51,11.60
2012,09,19,02,52,11.60
2012,09,19,02,53,11.60
2012,09,19,02,54,11.50
2012,09,19,02,55,11.50
2012,09,19,02,56,11.50
2012,09,19,02,57,11.40
2012,09,19,02,58,11.40
2012,09,19,02,59,11.40
2012,09,19,03,00,11.40
2012,09,19,03,01,11.40
2012,09,19,03,02,11.40
2012,09,19,03,06,11.30
2012,09,19,03,07,11.30
2012,09,19,03,08,11.30
2012,09,19,03,09,11.30
2012,09,19,03,10,11.30
2012,09,19,03,11,11.30
2012,09,19,03,12,11.30
2012,09,19,03,13,11.30
2012,09,19,03,14,11.30
2012,09,19,03,15,11.30
2012,09,19,03,16,11.40
2012,09,19,03,17,11.40
2012,09,19,03,18,11.40
2012,09,19,03,19,11.40
2012,09,19,03,20,11.30
2012,09,19,03,21,11.30
2012,09,19,03,22,11.30
2012,09,19,03,23,11.30
2012,09,19,03,24,11.20
2012,09,19,03,25,11.20
2012,09,19,03,26,11.20
2012,09,19,03,27,11.20
2012,09,19,03,28,11.20
2012,09,19,03,29,11.10
2012,09,19,03,30,11.10
2012,09,19,03,31,11.10
2012,09,19,03,32,11.10
2012,09,19,03,33,11.10
2012,09,19,03,34,11.10
2012,09,19,03,35,11.10
2012,09,19,03,36,11.10
2012,09,19,03,37,11.10
2012,09,19,03,38,11.10
2012,09,19,03,39,11.10
2012,09,19,03,40,11.10
2012,09,19,03,41,11.00
2012,09,19,03,42,11.00
2012,09,19,03,43,11.00
2012,09,19,03,44,11.00
2012,09,19,03,45,11.00
2012,09,19,03,46,11.00
2012,09,19,03,47,10.90
2012,09,19,03,48,10.90
2012,09,19,03,49,10.90
2012,09,19,03,50,10.90
2012,09,19,03,51,10.90
2012,09,19,03,52,10.90
2012,09,19,03,53,10.90
2012,09,19,03,54,10.90
2012,09,19,03,55,10.80
2012,09,19,03,56,10.80
2012,09,19,03,57,10.80
2012,09,19,03,58,10.80
2012,09,19,03,59,10.80
2012,09,19,04,00,10.80
2012,09,19,04,01,10.80
2012,09,19,04,02,10.80
2012,09,19,04,03,10.80
2012,09,19,04,04,10.80
2012,09,19,04,05,10.80
2012,09,19,04,06,10.70
2012,09,19,04,07,10.70
2012,09,19,04,08,10.70
2012,09,19,04,09,10.70
2012,09,19,04,10,10.70
2012,09,19,04,11,10.70
2012,09,19,04,12,10.70
2012,09,19,04,13,10.70
2012,09,19,04,14,10.70
2012,09,19,04,15,10.60
2012,09,19,04,16,10.60
2012,09,19,04,17,10.60
2012,09,19,04,18,10.60
2012,09,19,04,19,10.60
2012,09,19,04,20,10.60
2012,09,19,04,21,10.60
2012,09,19,04,22,10.60
2012,09,19,04,23,10.60
2012,09,19,04,24,10.60
2012,09,19,04,25,10.60
2012,09,19,04,26,10.50
2012,09,19,04,27,10.60
2012,09,19,04,28,10.60
2012,09,19,04,29,10.50
2012,09,19,04,30,10.50
2012,09,19,04,31,10.50
2012,09,19,04,32,10.50
2012,09,19,04,33,10.50
2012,09,19,04,34,10.50
2012,09,19,04,35,10.40
2012,09,19,04,36,10.40
2012,09,19,04,37,10.40
2012,09,19,04,38,10.40
2012,09,19,04,39,10.40
2012,09,19,04,40,10.40
2012,09,19,04,41,10.40
2012,09,19,04,42,10.40
2012,09,19,04,43,10.40
2012,09,19,04,44,10.40
2012,09,19,04,45,10.40
2012,09,19,04,46,10.30
2012,09,19,04,47,10.30
2012,09,19,04,48,10.30
2012,09,19,04,49,10.30
2012,09,19,04,50,10.30
2012,09,19,04,51,10.30
2012,09,19,04,52,10.30
2012,09,19,04,53,10.30
2012,09,19,04,54,10.30
2012,09,19,04,55,10.30
2012,09,19,04,56,10.20
2012,09,19,04,57,10.20
2012,09,19,04,58,10.20
2012,09,19,04,59,10.20
2012,09,19,05,00,10.20
2012,09,19,05,01,10.10
2012,09,19,05,02,10.10
2012,09,19,05,03,10.10
2012,09,19,05,04,10.10
2012,09,19,05,05,10.10
2012,09,19,05,06,10.10
2012,09,19,05,07,10.10
2012,09,19,05,08,10.00
2012,09,19,05,09,10.00
2012,09,19,05,10,10.00
2012,09,19,05,11,10.00
2012,09,19,05,12,10.00
2012,09,19,05,13,10.00
2012,09,19,05,14,10.00
2012,09,19,05,15,10.00
2012,09,19,05,16,10.00
2012,09,19,05,17,10.00
2012,09,19,05,18,9.90
2012,09,19,05,19,9.90
2012,09,19,05,20,9.90
2012,09,19,05,21,9.90
2012,09,19,05,22,9.90
2012,09,19,05,23,9.90
2012,09,19,05,24,9.90
2012,09,19,05,25,9.80
2012,09,19,05,26,9.80
2012,09,19,05,27,9.80
2012,09,19,05,28,9.80
2012,09,19,05,29,9.80
2012,09,19,05,30,9.80
2012,09,19,05,31,9.80
2012,09,19,05,32,9.90
2012,09,19,05,33,9.90
2012,09,19,05,34,9.90
2012,09,19,05,35,9.90
2012,09,19,05,36,10.00
2012,09,19,05,37,10.00
2012,09,19,05,38,10.00
2012,09,19,05,39,9.90
2012,09,19,05,40,9.90
2012,09,19,05,41,9.90
2012,09,19,05,42,9.90
2012,09,19,05,43,9.90
2012,09,19,05,44,9.90
2012,09,19,05,45,9.90
2012,09,19,05,46,9.90
2012,09,19,05,47,9.80
2012,09,19,05,48,9.80
2012,09,19,05,49,9.80
2012,09,19,05,50,9.80
2012,09,19,05,51,9.80
2012,09,19,05,52,9.80
2012,09,19,05,53,9.80
2012,09,19,05,54,9.80
2012,09,19,05,55,9.80
2012,09,19,05,56,9.80
2012,09,19,05,57,9.70
2012,09,19,05,58,9.70
2012,09,19,05,59,9.70
2012,09,19,06,00,9.70
2012,09,19,06,01,9.70
2012,09,19,06,02,9.70
2012,09,19,06,03,9.70
2012,09,19,06,04,9.60
2012,09,19,06,05,9.60
2012,09,19,06,06,9.60
2012,09,19,06,07,9.60
2012,09,19,06,08,9.60
2012,09,19,06,09,9.60
2012,09,19,06,10,9.70
2012,09,19,06,11,9.70
2012,09,19,06,12,9.70
2012,09,19,06,13,9.70
2012,09,19,06,14,9.70
2012,09,19,06,15,9.70
2012,09,19,06,16,9.70
2012,09,19,06,17,9.70
2012,09,19,06,18,9.70
2012,09,19,06,19,9.70
2012,09,19,06,20,9.70
2012,09,19,06,21,9.60
2012,09,19,06,22,9.60
2012,09,19,06,23,9.60
2012,09,19,06,24,9.60
2012,09,19,06,25,9.50
2012,09,19,06,26,9.50
2012,09,19,06,27,9.50
2012,09,19,06,28,9.50
2012,09,19,06,29,9.50
2012,09,19,06,30,9.40
2012,09,19,06,31,9.50
2012,09,19,06,32,9.50
2012,09,19,06,33,9.50
2012,09,19,06,34,9.50
2012,09,19,06,35,9.50
2012,09,19,06,36,9.50
2012,09,19,06,37,9.50
2012,09,19,06,38,9.40
2012,09,19,06,39,9.40
2012,09,19,06,40,9.40
2012,09,19,06,41,9.40
2012,09,19,06,42,9.30
2012,09,19,06,43,9.30
2012,09,19,06,44,9.30
2012,09,19,06,45,9.30
2012,09,19,06,46,9.30
2012,09,19,06,47,9.20
2012,09,19,06,48,9.20
2012,09,19,06,49,9.30
2012,09,19,06,50,9.20
2012,09,19,06,51,9.20
2012,09,19,06,52,9.30
2012,09,19,06,53,9.30
2012,09,19,06,54,9.30
2012,09,19,06,55,9.30
2012,09,19,06,56,9.30
2012,09,19,06,57,9.30
2012,09,19,06,58,9.20
2012,09,19,06,59,9.30
2012,09,19,07,00,9.30
2012,09,19,07,01,9.30
2012,09,19,07,02,9.30
2012,09,19,07,03,9.30
2012,09,19,07,04,9.30
2012,09,19,07,05,9.40
2012,09,19,07,06,9.40
2012,09,19,07,07,9.50
2012,09,19,07,08,9.50
2012,09,19,07,09,9.50
2012,09,19,07,10,9.50
2012,09,19,07,11,9.50
2012,09,19,07,12,9.50
2012,09,19,07,13,9.50
2012,09,19,07,14,9.60
2012,09,19,07,15,9.60
2012,09,19,07,16,9.60
2012,09,19,07,17,9.60
2012,09,19,07,18,9.60
2012,09,19,07,19,9.60
2012,09,19,07,20,9.60
2012,09,19,07,21,9.60
2012,09,19,07,22,9.60
2012,09,19,07,23,9.60
2012,09,19,07,24,9.60
2012,09,19,07,25,9.60
2012,09,19,07,26,9.60
2012,09,19,07,27,9.60
2012,09,19,07,28,9.60
2012,09,19,07,29,9.60
2012,09,19,07,30,9.60
2012,09,19,07,31,9.60
2012,09,19,07,32,9.60
2012,09,19,07,33,9.50
2012,09,19,07,34,9.50
2012,09,19,07,35,9.50
2012,09,19,07,36,9.50
2012,09,19,07,37,9.50
2012,09,19,07,38,9.40
2012,09,19,07,39,9.40
2012,09,19,07,40,9.40
2012,09,19,07,41,9.40
2012,09,19,07,42,9.40
2012,09,19,07,43,9.40
2012,09,19,07,44,9.40
2012,09,19,07,45,9.50
2012,09,19,07,46,9.50
2012,09,19,07,47,9.50
2012,09,19,07,48,9.50
2012,09,19,07,49,9.50
2012,09,19,07,50,9.50
2012,09,19,07,51,9.60
2012,09,19,07,52,9.60
2012,09,19,07,53,9.60
2012,09,19,07,54,9.60
2012,09,19,07,55,9.60
2012,09,19,07,56,9.60
2012,09,19,07,57,9.60
2012,09,19,07,58,9.60
2012,09,19,07,59,9.50
2012,09,19,08,00,9.50
2012,09,19,08,01,9.50
2012,09,19,08,02,9.50
2012,09,19,08,03,9.50
2012,09,19,08,04,9.50
2012,09,19,08,05,9.50
2012,09,19,08,06,9.40
2012,09,19,08,07,9.40
2012,09,19,08,08,9.40
2012,09,19,08,09,9.40
2012,09,19,08,10,9.40
2012,09,19,08,11,9.50
2012,09,19,08,12,9.50
2012,09,19,08,13,9.60
2012,09,19,08,14,9.60
2012,09,19,08,15,9.70
2012,09,19,08,16,9.80
2012,09,19,08,17,9.90
2012,09,19,08,18,9.90
2012,09,19,08,19,10.00
2012,09,19,08,20,10.10
2012,09,19,08,21,10.20
2012,09,19,08,22,10.20
2012,09,19,08,23,10.30
2012,09,19,08,24,10.40
2012,09,19,08,25,10.40
2012,09,19,08,26,10.50
2012,09,19,08,27,10.50
2012,09,19,08,28,10.60
2012,09,19,08,29,10.70
2012,09,19,08,30,10.70
2012,09,19,08,31,10.80
2012,09,19,08,32,10.90
2012,09,19,08,33,11.00
2012,09,19,08,34,11.10
2012,09,19,08,35,11.20
2012,09,19,08,36,11.30
2012,09,19,08,37,11.40
2012,09,19,08,38,11.40
2012,09,19,08,39,11.50
2012,09,19,08,40,11.60
2012,09,19,08,41,11.60
2012,09,19,08,42,11.70
2012,09,19,08,43,11.80
2012,09,19,08,44,11.80
2012,09,19,08,45,11.90
2012,09,19,08,46,12.00
2012,09,19,08,47,12.00
2012,09,19,08,48,12.10
2012,09,19,08,49,12.20
2012,09,19,08,50,12.20
2012,09,19,08,51,12.20
2012,09,19,08,52,12.30
2012,09,19,08,53,12.30
2012,09,19,08,54,12.40
2012,09,19,08,55,12.40
2012,09,19,08,56,12.50
2012,09,19,08,57,12.50
2012,09,19,08,58,12.50
2012,09,19,08,59,12.60
2012,09,19,09,00,12.60
2012,09,19,09,01,12.70
2012,09,19,09,02,12.70
2012,09,19,09,03,12.80
2012,09,19,09,04,12.80
2012,09,19,09,05,12.70
2012,09,19,09,06,12.60
2012,09,19,09,07,12.50
2012,09,19,09,08,12.40
2012,09,19,09,09,12.40
2012,09,19,09,10,12.40
2012,09,19,09,11,12.40
2012,09,19,09,12,12.40
2012,09,19,09,13,12.40
2012,09,19,09,14,12.40
2012,09,19,09,15,12.40
2012,09,19,09,16,12.40
2012,09,19,09,17,12.40
2012,09,19,09,18,12.40
2012,09,19,09,19,12.40
2012,09,19,09,20,12.40
2012,09,19,09,21,12.40
2012,09,19,09,22,12.40
2012,09,19,09,23,12.50
2012,09,19,09,24,12.50
2012,09,19,09,25,12.60
2012,09,19,09,26,12.70
2012,09,19,09,27,12.80
2012,09,19,09,28,12.80
2012,09,19,09,29,12.90
2012,09,19,09,30,13.00
2012,09,19,09,31,13.00
2012,09,19,09,32,13.10
2012,09,19,09,33,13.20
2012,09,19,09,34,13.20
2012,09,19,09,35,13.30
2012,09,19,09,36,13.40
2012,09,19,09,37,13.50
2012,09,19,09,38,13.50
2012,09,19,09,39,13.60
2012,09,19,09,40,13.60
2012,09,19,09,41,13.60
2012,09,19,09,42,13.60
2012,09,19,09,43,13.70
2012,09,19,09,44,13.70
2012,09,19,09,45,13.70
2012,09,19,09,46,13.70
2012,09,19,09,47,13.70
2012,09,19,09,48,13.70
2012,09,19,09,49,13.60
2012,09,19,09,50,13.60
2012,09,19,09,51,13.50
2012,09,19,09,52,13.50
2012,09,19,09,53,13.50
2012,09,19,09,54,13.50
2012,09,19,09,55,13.50
2012,09,19,09,56,13.40
2012,09,19,09,57,13.40
2012,09,19,09,58,13.40
2012,09,19,09,59,13.40
2012,09,19,10,00,13.40
2012,09,19,10,01,13.40
2012,09,19,10,02,13.40
2012,09,19,10,03,13.40
2012,09,19,10,04,13.40
2012,09,19,10,05,13.40
2012,09,19,10,06,13.40
2012,09,19,10,07,13.50
2012,09,19,10,08,13.50
2012,09,19,10,09,13.60
2012,09,19,10,10,13.60
2012,09,19,10,11,13.60
2012,09,19,10,12,13.70
2012,09,19,10,13,13.70
2012,09,19,10,14,13.80
2012,09,19,10,15,13.80
2012,09,19,10,16,13.80
2012,09,19,10,17,13.90
2012,09,19,10,18,13.90
2012,09,19,10,19,14.00
2012,09,19,10,20,14.10
2012,09,19,10,21,14.20
2012,09,19,10,22,14.30
2012,09,19,10,23,14.30
2012,09,19,10,24,14.30
2012,09,19,10,25,14.30
2012,09,19,10,26,14.30
2012,09,19,10,27,14.30
2012,09,19,10,28,14.30
2012,09,19,10,29,14.40
2012,09,19,10,30,14.40
2012,09,19,10,31,14.50
2012,09,19,10,32,14.50
2012,09,19,10,33,14.60
2012,09,19,10,34,14.70
2012,09,19,10,35,14.70
2012,09,19,10,36,14.70
2012,09,19,10,37,14.80
2012,09,19,10,38,14.80
2012,09,19,10,39,14.80
2012,09,19,10,40,14.80
2012,09,19,10,41,14.80
2012,09,19,10,42,14.90
2012,09,19,10,43,15.00
2012,09,19,10,44,15.00
2012,09,19,10,45,15.00
2012,09,19,10,46,15.00
2012,09,19,10,47,15.00
2012,09,19,10,48,15.00
2012,09,19,10,49,15.10
2012,09,19,10,50,15.00
2012,09,19,10,51,15.10
2012,09,19,10,52,15.10
2012,09,19,10,53,15.10
2012,09,19,10,54,15.10
2012,09,19,10,55,15.10
2012,09,19,10,56,15.10
2012,09,19,10,57,15.20
2012,09,19,10,58,15.20
2012,09,19,10,59,15.30
2012,09,19,11,00,15.40
2012,09,19,11,01,15.40
2012,09,19,11,02,15.40
2012,09,19,11,03,15.50
2012,09,19,11,04,15.60
2012,09,19,11,05,15.60
2012,09,19,11,06,15.70
2012,09,19,11,07,15.80
2012,09,19,11,08,15.90
2012,09,19,11,09,16.00
2012,09,19,11,10,16.10
2012,09,19,11,11,16.20
2012,09,19,11,12,16.20
2012,09,19,11,13,16.30
2012,09,19,11,14,16.30
2012,09,19,11,15,16.40
2012,09,19,11,16,16.40
2012,09,19,11,17,16.40
2012,09,19,11,18,16.40
2012,09,19,11,19,16.50
2012,09,19,11,20,16.50
2012,09,19,11,21,16.60
2012,09,19,11,22,16.70
2012,09,19,11,23,16.80
2012,09,19,11,24,16.80
2012,09,19,11,25,16.80
2012,09,19,11,26,16.80
2012,09,19,11,27,16.80
2012,09,19,11,28,16.80
2012,09,19,11,29,16.80
2012,09,19,11,30,16.90
2012,09,19,11,31,17.00
2012,09,19,11,32,17.00
2012,09,19,11,33,17.10
2012,09,19,11,34,17.20
2012,09,19,11,35,17.20
2012,09,19,11,36,17.30
2012,09,19,11,37,17.40
2012,09,19,11,38,17.50
2012,09,19,11,39,17.50
2012,09,19,11,40,17.60
2012,09,19,11,41,17.60
2012,09,19,11,42,17.60
2012,09,19,11,43,17.70
2012,09,19,11,44,17.70
2012,09,19,11,45,17.80
2012,09,19,11,46,17.90
2012,09,19,11,47,18.00
2012,09,19,11,48,18.10
2012,09,19,11,49,18.10
2012,09,19,11,50,18.20
2012,09,19,11,51,18.30
2012,09,19,11,52,18.30
2012,09,19,11,53,18.40
2012,09,19,11,54,18.50
2012,09,19,11,55,18.60
2012,09,19,11,56,18.60
2012,09,19,11,57,18.70
2012,09,19,11,58,18.80
2012,09,19,11,59,18.90
2012,09,19,12,00,18.90
2012,09,19,12,01,18.90
2012,09,19,12,02,19.00
2012,09,19,12,03,19.10
2012,09,19,12,04,19.20
2012,09,19,12,05,19.30
2012,09,19,12,06,19.30
2012,09,19,12,07,19.40
2012,09,19,12,08,19.40
2012,09,19,12,09,19.50
2012,09,19,12,10,19.50
2012,09,19,12,11,19.60
2012,09,19,12,12,19.60
2012,09,19,12,13,19.60
2012,09,19,12,14,19.60
2012,09,19,12,15,19.70
2012,09,19,12,16,19.70
2012,09,19,12,17,19.70
2012,09,19,12,18,19.80
2012,09,19,12,19,19.80
2012,09,19,12,20,19.90
2012,09,19,12,21,20.00
2012,09,19,12,22,20.10
2012,09,19,12,23,20.20
2012,09,19,12,24,20.20
2012,09,19,12,25,20.20
2012,09,19,12,26,20.20
2012,09,19,12,27,20.30
2012,09,19,12,28,20.40
2012,09,19,12,29,20.50
2012,09,19,12,30,20.60
2012,09,19,12,31,20.70
2012,09,19,12,32,20.70
2012,09,19,12,33,20.80
2012,09,19,12,34,20.90
2012,09,19,12,35,20.90
2012,09,19,12,36,21.00
2012,09,19,12,37,21.00
2012,09,19,12,38,21.00
2012,09,19,12,39,21.10
2012,09,19,12,40,21.10
2012,09,19,12,41,21.20
2012,09,19,12,42,21.30
2012,09,19,12,43,21.40
2012,09,19,12,44,21.50
2012,09,19,12,45,21.60
2012,09,19,12,46,21.70
2012,09,19,12,47,21.80
2012,09,19,12,48,21.80
2012,09,19,12,49,21.90
2012,09,19,12,50,21.90
2012,09,19,12,51,21.90
2012,09,19,12,52,21.90
2012,09,19,12,53,21.90
2012,09,19,12,54,21.90
2012,09,19,12,55,21.90
2012,09,19,12,56,21.90
2012,09,19,12,57,21.90
2012,09,19,12,58,21.90
2012,09,19,12,59,21.90
2012,09,19,13,00,21.90
2012,09,19,13,01,21.90
2012,09,19,13,02,21.90
2012,09,19,13,03,21.90
2012,09,19,13,04,21.90
2012,09,19,13,05,21.90
2012,09,19,13,06,22.00
2012,09,19,13,07,22.10
2012,09,19,13,08,22.20
2012,09,19,13,09,22.30
2012,09,19,13,10,22.30
2012,09,19,13,11,22.40
2012,09,19,13,12,22.40
2012,09,19,13,13,22.50
2012,09,19,13,14,22.50
2012,09,19,13,15,22.50
2012,09,19,13,16,22.50
2012,09,19,13,17,22.60
2012,09,19,13,18,22.60
2012,09,19,13,19,22.60
2012,09,19,13,20,22.70
2012,09,19,13,21,22.80
2012,09,19,13,22,22.90
2012,09,19,13,23,22.90
2012,09,19,13,24,22.90
2012,09,19,13,25,22.90
2012,09,19,13,26,22.80
2012,09,19,13,27,22.80
2012,09,19,13,28,22.80
2012,09,19,13,29,22.80
2012,09,19,13,30,22.80
2012,09,19,13,31,22.90
2012,09,19,13,32,22.90
2012,09,19,13,33,22.90
2012,09,19,13,34,22.90
2012,09,19,13,35,23.00
2012,09,19,13,36,22.90
2012,09,19,13,37,22.90
2012,09,19,13,38,23.00
2012,09,19,13,39,23.00
2012,09,19,13,40,23.10
2012,09,19,13,41,23.10
2012,09,19,13,42,23.20
2012,09,19,13,43,23.30
2012,09,19,13,44,23.30
2012,09,19,13,45,23.30
2012,09,19,13,46,23.30
2012,09,19,13,47,23.30
2012,09,19,13,48,23.30
2012,09,19,13,49,23.40
2012,09,19,13,50,23.40
2012,09,19,13,51,23.40
2012,09,19,13,52,23.50
2012,09,19,13,53,23.50
2012,09,19,13,54,23.60
2012,09,19,13,55,23.70
2012,09,19,13,56,23.80
2012,09,19,13,57,23.80
2012,09,19,13,58,23.90
2012,09,19,13,59,24.00
2012,09,19,14,00,24.00
2012,09,19,14,01,24.10
2012,09,19,14,02,24.20
2012,09,19,14,03,24.30
2012,09,19,14,04,24.30
2012,09,19,14,05,24.30
2012,09,19,14,06,24.30
2012,09,19,14,07,24.30
2012,09,19,14,08,24.30
2012,09,19,14,09,24.40
2012,09,19,14,10,24.40
2012,09,19,14,11,24.40
2012,09,19,14,12,24.40
2012,09,19,14,13,24.30
2012,09,19,14,14,24.30
2012,09,19,14,15,24.20
2012,09,19,14,16,24.30
2012,09,19,14,17,24.30
2012,09,19,14,18,24.30
2012,09,19,14,19,24.40
2012,09,19,14,20,24.40
2012,09,19,14,21,24.50
2012,09,19,14,22,24.60
2012,09,19,14,23,24.60
2012,09,19,14,24,24.70
2012,09,19,14,25,24.80
2012,09,19,14,26,24.80
2012,09,19,14,27,24.80
2012,09,19,14,28,24.90
2012,09,19,14,29,24.90
2012,09,19,14,30,25.10
2012,09,19,14,31,25.20
2012,09,19,14,32,25.20
2012,09,19,14,33,25.20
2012,09,19,14,34,25.20
2012,09,19,14,35,25.20
2012,09,19,14,36,25.20
2012,09,19,14,37,25.20
2012,09,19,14,38,25.20
2012,09,19,14,39,25.10
2012,09,19,14,40,25.10
2012,09,19,14,41,25.10
2012,09,19,14,42,25.10
2012,09,19,14,43,25.10
2012,09,19,14,44,25.10
2012,09,19,14,45,25.10
2012,09,19,14,46,25.10
2012,09,19,14,47,25.20
2012,09,19,14,48,25.30
2012,09,19,14,49,25.30
2012,09,19,14,50,25.40
2012,09,19,14,51,25.50
2012,09,19,14,52,25.60
2012,09,19,14,53,25.70
2012,09,19,14,54,25.80
2012,09,19,14,55,25.80
2012,09,19,14,56,25.90
2012,09,19,14,57,25.90
2012,09,19,14,58,25.90
2012,09,19,14,59,26.00
2012,09,19,15,00,26.10
2012,09,19,15,01,26.10
2012,09,19,15,02,26.20
2012,09,19,15,03,26.20
2012,09,19,15,04,26.20
2012,09,19,15,05,26.20
2012,09,19,15,06,26.20
2012,09,19,15,07,26.20
2012,09,19,15,08,26.30
2012,09,19,15,09,26.20
2012,09,19,15,10,26.20
2012,09,19,15,11,26.20
2012,09,19,15,12,26.20
2012,09,19,15,13,26.20
2012,09,19,15,14,26.20
2012,09,19,15,15,26.20
2012,09,19,15,16,26.20
2012,09,19,15,17,26.30
2012,09,19,15,18,26.40
2012,09,19,15,19,26.50
2012,09,19,15,20,26.50
2012,09,19,15,21,26.60
2012,09,19,15,22,26.70
2012,09,19,15,23,26.70
2012,09,19,15,24,26.80
2012,09,19,15,25,26.80
2012,09,19,15,26,26.80
2012,09,19,15,27,26.80
2012,09,19,15,28,26.80
2012,09,19,15,29,26.70
2012,09,19,15,30,26.70
2012,09,19,15,31,26.70
2012,09,19,15,32,26.60
2012,09,19,15,33,26.60
2012,09,19,15,34,26.60
2012,09,19,15,35,26.60
2012,09,19,15,36,26.60
2012,09,19,15,37,26.60
2012,09,19,15,38,26.60
2012,09,19,15,39,26.60
2012,09,19,15,40,26.60
2012,09,19,15,41,26.60
2012,09,19,15,42,26.60
2012,09,19,15,43,26.60
2012,09,19,15,44,26.50
2012,09,19,15,45,26.40
2012,09,19,15,46,26.30
2012,09,19,15,47,26.20
2012,09,19,15,48,26.20
2012,09,19,15,49,26.10
2012,09,19,15,50,26.10
2012,09,19,15,51,26.10
2012,09,19,15,52,26.10
2012,09,19,15,53,26.10
2012,09,19,15,54,26.10
2012,09,19,15,55,26.00
2012,09,19,15,56,26.10
2012,09,19,15,57,26.10
2012,09,19,15,58,26.20
2012,09,19,15,59,26.20
2012,09,19,16,00,26.20
2012,09,19,16,01,26.20
2012,09,19,16,02,26.30
2012,09,19,16,03,26.30
2012,09,19,16,04,26.40
2012,09,19,16,05,26.40
2012,09,19,16,06,26.40
2012,09,19,16,07,26.40
2012,09,19,16,08,26.40
2012,09,19,16,09,26.40
2012,09,19,16,10,26.30
2012,09,19,16,11,26.30
2012,09,19,16,12,26.30
2012,09,19,16,13,26.30
2012,09,19,16,14,26.30
2012,09,19,16,15,26.30
2012,09,19,16,16,26.30
2012,09,19,16,17,26.30
2012,09,19,16,18,26.30
2012,09,19,16,19,26.30
2012,09,19,16,20,26.30
2012,09,19,16,21,26.40
2012,09,19,16,22,26.40
2012,09,19,16,23,26.40
2012,09,19,16,24,26.50
2012,09,19,16,25,26.50
2012,09,19,16,26,26.60
2012,09,19,16,27,26.60
2012,09,19,16,28,26.70
2012,09,19,16,29,26.70
2012,09,19,16,30,26.70
2012,09,19,16,31,26.70
2012,09,19,16,32,26.70
2012,09,19,16,33,26.70
2012,09,19,16,34,26.70
2012,09,19,16,35,26.60
2012,09,19,16,36,26.60
2012,09,19,16,37,26.70
2012,09,19,16,38,26.70
2012,09,19,16,39,26.80
2012,09,19,16,40,26.80
2012,09,19,16,41,26.80
2012,09,19,16,42,26.80
2012,09,19,16,43,26.80
2012,09,19,16,44,26.80
2012,09,19,16,45,26.80
2012,09,19,16,46,26.80
2012,09,19,16,47,26.80
2012,09,19,16,48,26.90
2012,09,19,16,49,26.90
2012,09,19,16,50,26.90
2012,09,19,16,51,26.90
2012,09,19,16,52,26.90
2012,09,19,16,53,26.90
2012,09,19,16,54,26.90
2012,09,19,16,55,26.80
2012,09,19,16,56,26.70
2012,09,19,16,57,26.70
2012,09,19,16,58,26.70
2012,09,19,16,59,26.70
2012,09,19,17,00,26.70
2012,09,19,17,01,26.70
2012,09,19,17,02,26.70
2012,09,19,17,03,26.70
2012,09,19,17,04,26.60
2012,09,19,17,05,26.60
2012,09,19,17,06,26.60
2012,09,19,17,07,26.60
2012,09,19,17,08,26.60
2012,09,19,17,09,26.60
2012,09,19,17,10,26.60
2012,09,19,17,11,26.70
2012,09,19,17,12,26.70
2012,09,19,17,13,26.70
2012,09,19,17,14,26.80
2012,09,19,17,15,26.80
2012,09,19,17,16,26.80
2012,09,19,17,17,26.80
2012,09,19,17,18,26.80
2012,09,19,17,19,26.70
2012,09,19,17,20,26.70
2012,09,19,17,21,26.60
2012,09,19,17,22,26.60
2012,09,19,17,23,26.60
2012,09,19,17,24,26.50
2012,09,19,17,25,26.50
2012,09,19,17,26,26.40
2012,09,19,17,27,26.40
2012,09,19,17,28,26.40
2012,09,19,17,29,26.50
2012,09,19,17,30,26.50